Location: Warszawa
(52.2500°N, 21.0000°E)
Time: 14:20:55
(UTC+01:00)

Vanguard 2 - Pass Details

Date: 08 February 2023
Orbit: 553 x 2927 km, 32.9° (Epoch: 24 March)

Event Time Altitude Azimuth Distance (km) Brightness Sun altitude
Rises 23:16:16 0° 256° (WSW) 5,591 11.9 -52.0°
Enters shadow 23:18:21 - 251° (WSW) 5,189 11.7 -52.1°
Reaches altitude 10° 23:20:04 10° 247° (WSW) 4,886 - -52.1°
Maximum altitude 23:32:33 34° 191° (S) 3,927 - -52.4°
Drops below altitude 10° 23:47:13 10° 136° (SE) 5,731 - -52.6°
Sets 23:52:10 0° 128° (SE) 6,648 - -52.6°
